Date Time,Air Temp,Sky Temp,Clarity,Light Level,Rain Sensor,Readings
2011-02-06 00:00:37,16.0,3.9,12.2,0.0,22.0,111
2011-02-06 00:05:37,16.0,5.4,10.6,0.0,31.5,112
2011-02-06 00:10:37,15.8,5.9,9.9,0.0,27.8,111
2011-02-06 00:15:37,16.0,5.4,10.6,0.0,25.7,112
2011-02-06 00:20:37,16.2,3.5,12.7,0.0,22.6,111
2011-02-06 00:25:37,16.1,3.7,12.4,0.0,23.9,112
2011-02-06 00:30:37,16.1,5.1,11.0,0.0,27.4,111
2011-02-06 00:35:37,16.1,4.2,11.9,0.0,22.2,112
2011-02-06 00:40:37,16.1,3.3,12.9,0.0,24.5,111
2011-02-06 00:45:37,16.1,3.4,12.7,0.0,24.8,111
2011-02-06 00:50:37,16.1,3.1,13.0,0.0,23.9,112
2011-02-06 00:55:37,16.0,5.6,10.4,0.0,22.3,111
2011-02-06 01:01:15,16.0,4.3,11.7,0.0,23.0,112
2011-02-06 01:06:15,15.9,4.5,11.4,0.0,22.5,111
2011-02-06 01:11:15,15.9,4.4,11.6,0.0,19.8,111
2011-02-06 01:16:15,15.9,5.0,10.9,0.0,24.0,111
2011-02-06 01:21:15,15.9,5.9,10.0,0.0,25.1,112
2011-02-06 01:26:15,15.9,6.9,9.0,0.0,26.0,111
2011-02-06 01:31:15,15.9,6.3,9.6,0.0,30.5,112
2011-02-06 01:36:15,15.9,6.2,9.7,0.0,18.5,111
2011-02-06 01:41:15,15.9,6.6,9.3,0.0,26.3,111
2011-02-06 01:46:15,16.0,6.6,9.4,0.0,17.1,112
2011-02-06 01:51:15,15.3,6.2,9.1,0.0,17.1,112
2011-02-06 01:56:15,15.9,7.0,8.9,0.0,23.6,111
2011-02-06 02:01:15,15.9,6.6,9.3,0.0,26.2,111
2011-02-06 02:06:15,15.9,6.5,9.4,0.0,28.5,111
2011-02-06 02:11:15,16.0,6.7,9.3,0.0,25.5,112
2011-02-06 02:16:15,16.0,6.1,9.9,0.0,23.7,111
2011-02-06 02:21:15,15.9,5.1,10.9,0.0,20.8,112
2011-02-06 02:26:15,15.9,3.1,12.9,0.0,17.1,111
2011-02-06 02:31:15,15.8,1.9,13.9,0.0,15.7,111
2011-02-06 02:36:15,15.8,2.2,13.6,0.0,16.2,112
2011-02-06 02:41:15,15.8,2.6,13.2,0.0,20.6,111
2011-02-06 02:46:15,15.8,2.5,13.2,0.0,17.7,111
2011-02-06 02:51:15,15.7,2.3,13.4,0.0,14.9,111
2011-02-06 02:56:15,15.7,3.0,12.7,0.0,12.8,111
2011-02-06 03:01:15,15.7,3.1,12.6,0.0,11.2,112
2011-02-06 03:06:15,15.8,2.5,13.3,0.0,14.2,111
2011-02-06 03:11:15,15.8,2.7,13.1,0.0,14.3,111
2011-02-06 03:16:15,15.7,2.9,12.8,0.0,11.6,111
2011-02-06 03:20:03,15.8,3.2,12.5,0.0,11.1,18
2011-02-06 03:25:03,15.8,3.0,12.8,0.0,11.2,112
2011-02-06 03:30:03,15.8,3.2,12.6,0.0,11.0,111
2011-02-06 03:35:03,15.8,3.3,12.6,0.0,10.8,111
2011-02-06 03:40:03,15.9,3.1,12.7,0.0,10.1,112
2011-02-06 03:45:03,15.9,3.0,12.9,0.0,9.9,111
2011-02-06 03:50:03,16.0,3.0,12.9,0.0,9.8,111
2011-02-06 03:55:03,16.0,2.7,13.3,0.0,9.7,111
2011-02-06 04:00:03,16.0,3.0,13.0,0.0,9.8,111
2011-02-06 04:05:03,16.0,2.9,13.1,0.0,9.7,111
2011-02-06 04:10:03,16.0,3.0,13.0,0.0,9.8,112
2011-02-06 04:15:03,16.0,3.1,12.9,0.0,9.6,111
2011-02-06 04:20:03,16.0,3.1,12.9,0.0,9.6,111
2011-02-06 04:25:03,16.1,3.6,12.5,0.0,9.6,111
2011-02-06 04:30:03,16.1,3.5,12.6,0.0,9.4,111
2011-02-06 04:35:03,16.1,3.6,12.4,0.0,9.1,112
2011-02-06 04:40:03,16.1,3.4,12.6,0.0,9.3,111
2011-02-06 04:45:03,16.1,3.7,12.3,0.0,9.2,111
2011-02-06 04:50:03,16.1,3.1,13.0,0.0,9.3,112
2011-02-06 04:55:03,16.1,3.0,13.0,0.0,9.1,111
2011-02-06 05:00:03,16.1,3.3,12.9,0.0,8.8,111
2011-02-06 05:05:03,16.1,3.2,12.9,0.0,9.0,111
2011-02-06 05:10:03,16.1,2.7,13.4,0.0,9.4,111
2011-02-06 05:15:03,16.1,2.8,13.3,0.0,10.3,111
2011-02-06 05:20:03,16.0,2.8,13.2,0.0,10.6,112
2011-02-06 05:25:03,16.0,3.4,12.5,0.0,12.1,111
2011-02-06 05:30:03,15.9,3.4,12.5,0.0,12.2,111
2011-02-06 05:35:03,15.9,3.8,12.1,0.0,12.0,112
2011-02-06 05:40:03,15.8,3.6,12.2,0.0,13.1,112
2011-02-06 05:45:03,15.8,3.7,12.1,0.0,12.5,111
2011-02-06 05:50:03,15.8,3.9,11.9,0.0,11.9,111
2011-02-06 05:55:03,15.8,3.8,12.0,0.0,12.4,112
2011-02-06 06:00:03,15.8,3.7,12.1,0.0,12.7,111
2011-02-06 06:05:03,15.8,3.3,12.5,0.0,14.0,112
2011-02-06 06:10:03,15.8,2.5,13.3,0.0,20.7,111
2011-02-06 06:15:03,15.8,4.3,11.5,0.0,21.4,111
2011-02-06 06:20:03,15.8,5.7,10.1,0.0,22.9,111
2011-02-06 06:25:03,15.8,5.3,10.4,0.0,19.6,112
2011-02-06 06:30:03,15.7,4.1,11.7,0.0,17.6,112
2011-02-06 06:35:03,15.7,3.2,12.5,0.0,16.2,111
2011-02-06 06:40:03,15.7,3.5,12.2,0.0,12.7,111
2011-02-06 06:45:03,15.7,4.0,11.8,0.1,11.6,111
2011-02-06 06:50:03,15.8,3.6,12.2,0.3,11.3,111
2011-02-06 06:55:03,15.8,3.5,12.3,0.7,11.2,111
2011-02-06 07:00:03,16.1,3.5,12.6,1.7,11.2,112
2011-02-06 07:05:03,15.9,3.3,12.6,3.4,12.0,111
2011-02-06 07:10:03,15.9,3.2,12.7,7.3,11.7,111
2011-02-06 07:15:03,15.9,3.1,12.8,13.1,11.4,111
2011-02-06 07:20:03,16.0,3.1,12.9,17.4,11.4,112
2011-02-06 07:25:03,16.0,3.2,12.8,21.7,12.4,111
2011-02-06 07:30:03,16.0,3.1,12.9,25.1,12.6,112
2011-02-06 07:35:03,16.0,2.5,13.5,27.2,14.5,111
2011-02-06 07:40:03,15.9,2.7,13.2,28.7,14.2,111
2011-02-06 07:45:03,15.9,3.1,12.8,29.5,12.8,111
2011-02-06 07:50:03,16.0,2.9,13.1,29.9,14.4,112
2011-02-06 07:55:03,16.0,2.9,13.0,30.4,13.6,111
2011-02-06 08:00:03,15.9,3.1,12.9,30.7,13.8,111
2011-02-06 08:05:03,16.0,3.3,12.7,31.1,12.6,111
2011-02-06 08:10:03,16.0,3.1,12.9,31.3,11.9,112
2011-02-06 08:15:03,16.0,3.5,12.5,31.3,11.9,111
2011-02-06 08:20:03,16.1,3.2,12.9,31.3,13.0,111
2011-02-06 08:25:03,16.0,3.1,12.9,31.5,14.9,112
2011-02-06 08:30:03,16.0,3.4,12.6,31.6,14.1,111
2011-02-06 08:35:03,16.0,2.7,13.2,31.7,16.0,112
2011-02-06 08:40:03,16.0,3.0,13.0,31.8,15.8,111
2011-02-06 08:45:03,16.0,2.6,13.4,31.9,15.4,111
2011-02-06 08:50:03,16.0,2.7,13.3,32.0,17.5,112
2011-02-06 08:55:03,16.0,2.8,13.1,32.0,16.6,111
2011-02-06 09:00:03,15.9,2.4,13.5,32.1,16.4,111
2011-02-06 09:05:03,16.2,2.9,13.3,32.0,16.8,111
2011-02-06 09:10:03,15.9,3.2,12.8,31.9,15.1,111
2011-02-06 09:15:03,15.9,3.2,12.7,32.0,13.6,111
2011-02-06 09:20:03,16.0,3.6,12.4,32.1,12.9,112
2011-02-06 09:25:03,16.1,3.2,12.9,32.1,12.7,111
2011-02-06 09:30:03,16.1,3.2,12.9,32.2,11.5,111
2011-02-06 09:35:03,16.2,3.1,13.1,32.2,11.0,111
2011-02-06 09:40:03,16.3,2.7,13.6,32.2,10.8,111
2011-02-06 09:45:03,16.4,2.8,13.6,32.2,10.5,112
2011-02-06 09:50:03,16.5,2.6,13.9,32.2,10.6,111
2011-02-06 09:55:03,16.5,2.7,13.8,32.3,10.5,111
2011-02-06 10:00:03,16.6,2.9,13.7,32.3,10.5,111
2011-02-06 10:05:03,16.7,2.5,14.1,32.3,10.2,111
2011-02-06 10:10:03,16.7,2.4,14.3,32.4,10.1,111
2011-02-06 10:15:03,16.8,2.8,14.0,32.4,9.8,112
2011-02-06 10:20:03,16.8,2.9,13.9,32.3,9.4,111
2011-02-06 10:25:03,16.8,2.9,13.9,32.3,9.3,111
2011-02-06 10:30:03,16.8,2.5,14.3,32.3,8.9,111
2011-02-06 10:35:03,16.9,2.6,14.3,32.4,8.9,111
2011-02-06 10:40:03,16.9,2.6,14.3,32.4,8.9,111
2011-02-06 10:45:03,16.9,2.9,14.0,32.4,8.8,111
2011-02-06 10:50:03,16.9,2.8,14.1,32.3,9.1,111
2011-02-06 10:55:03,16.9,2.8,14.1,32.4,8.9,111
2011-02-06 11:00:03,16.9,3.2,13.7,32.4,8.9,112
2011-02-06 11:05:03,16.9,3.5,13.5,32.4,9.0,111
2011-02-06 11:10:03,17.0,3.1,13.9,32.4,9.2,111
2011-02-06 11:15:03,17.0,3.1,13.9,32.4,9.2,112
2011-02-06 11:20:03,17.0,2.7,14.3,32.4,9.2,111
2011-02-06 11:25:03,16.7,3.0,13.7,32.4,9.3,111
2011-02-06 11:30:03,17.0,2.8,14.2,32.4,9.1,111
2011-02-06 11:35:03,17.0,2.5,14.5,32.4,9.3,111
2011-02-06 11:40:03,17.0,2.2,14.8,32.4,9.3,112
2011-02-06 11:45:03,16.9,1.9,15.0,32.4,9.5,111
2011-02-06 11:50:03,16.9,1.9,15.0,32.4,9.6,111
2011-02-06 11:55:03,16.9,1.8,15.1,32.4,9.5,111
2011-02-06 12:00:03,16.8,1.8,15.0,32.4,9.7,111
2011-02-06 12:05:03,16.5,2.1,14.4,32.4,9.8,112
2011-02-06 12:10:03,16.8,2.0,14.8,32.4,9.8,111
2011-02-06 12:15:03,16.8,2.1,14.7,32.4,10.1,111
2011-02-06 12:20:03,16.8,2.2,14.6,32.4,10.2,111
2011-02-06 12:25:03,16.8,1.1,15.7,32.3,14.3,111
2011-02-06 12:30:03,16.4,1.8,14.7,32.4,15.0,111
2011-02-06 12:35:03,16.6,2.1,14.4,32.3,14.5,111
2011-02-06 12:40:03,16.2,2.8,13.4,32.4,12.3,112
2011-02-06 12:45:03,16.2,1.6,14.6,32.2,16.0,111
2011-02-06 12:50:03,16.1,2.0,14.1,32.2,22.7,111
2011-02-06 12:55:03,16.0,3.3,12.7,32.2,23.9,111
2011-02-06 13:00:03,15.9,2.7,13.2,32.2,20.8,112
2011-02-06 13:05:03,15.8,2.5,13.3,32.2,17.7,111
2011-02-06 13:10:03,15.8,2.0,13.8,32.2,18.2,111
2011-02-06 13:15:03,15.8,1.3,14.5,32.2,20.5,111
2011-02-06 13:20:03,15.9,1.9,14.0,32.2,22.0,111
2011-02-06 13:25:03,15.8,1.1,14.7,32.3,16.2,111
2011-02-06 13:30:03,16.1,1.5,14.6,32.3,13.2,112
2011-02-06 13:35:03,15.8,2.2,13.6,32.3,14.1,111
2011-02-06 13:40:03,15.8,2.1,13.6,32.3,14.2,111
2011-02-06 13:45:03,15.8,2.4,13.4,32.3,11.9,111
2011-02-06 13:50:03,15.9,2.4,13.4,32.3,11.3,112
2011-02-06 13:55:03,16.0,2.7,13.3,32.3,10.5,111
2011-02-06 14:00:03,15.8,2.2,13.5,32.3,11.2,111
2011-02-06 14:05:03,16.1,2.6,13.4,32.3,11.6,111
2011-02-06 14:10:03,16.1,2.6,13.4,32.2,12.2,112
2011-02-06 14:15:03,16.0,2.4,13.7,32.3,13.1,111
2011-02-06 14:20:03,16.0,2.7,13.3,32.2,13.5,111
2011-02-06 14:25:03,15.9,2.4,13.5,32.2,13.9,111
2011-02-06 14:30:03,15.9,1.9,14.0,32.3,14.3,111
2011-02-06 14:35:03,15.9,2.3,13.6,32.3,14.5,111
2011-02-06 14:40:03,15.9,2.1,13.8,32.3,14.4,111
2011-02-06 14:45:03,15.9,2.2,13.7,32.3,16.3,112
2011-02-06 14:50:03,15.9,2.3,13.5,32.2,16.0,111
2011-02-06 14:55:03,15.8,2.2,13.6,32.1,18.9,111
2011-02-06 15:00:03,15.8,1.8,13.9,32.1,16.0,111
2011-02-06 15:05:03,15.8,1.6,14.2,32.1,19.3,111
2011-02-06 15:10:03,15.8,2.3,13.5,32.0,17.1,111
2011-02-06 15:15:03,15.8,2.1,13.7,32.0,15.6,111
2011-02-06 15:20:03,15.7,2.1,13.6,32.1,16.4,112
2011-02-06 15:25:03,15.8,2.4,13.4,32.1,14.2,110
2011-02-06 15:30:03,15.8,2.6,13.2,32.1,14.7,111
2011-02-06 15:35:03,15.8,2.7,13.0,32.0,13.8,111
2011-02-06 15:40:03,15.7,2.4,13.3,32.0,14.9,111
2011-02-06 15:45:03,15.7,4.1,11.7,31.9,22.3,112
2011-02-06 15:50:03,15.6,4.6,11.1,31.8,19.5,111
2011-02-06 15:55:03,15.7,3.7,11.9,31.8,20.6,111
2011-02-06 16:00:03,15.6,5.4,10.2,31.7,22.4,112
2011-02-06 16:05:03,15.7,5.2,10.5,31.5,23.6,112
2011-02-06 16:10:03,15.7,5.3,10.4,31.6,14.5,111
2011-02-06 16:15:03,15.6,2.1,13.5,31.5,16.5,112
2011-02-06 16:20:03,15.6,2.0,13.6,31.4,16.4,111
2011-02-06 16:25:03,15.6,1.9,13.7,31.4,17.0,111
2011-02-06 16:30:03,15.6,2.5,13.1,31.0,15.4,111
2011-02-06 16:35:03,15.6,2.4,13.2,31.0,16.2,111
2011-02-06 16:40:03,15.6,1.8,13.8,31.0,18.7,111
2011-02-06 16:45:04,15.6,2.3,13.3,30.6,15.7,112
2011-02-06 16:50:04,15.6,2.5,13.1,30.4,13.9,111
2011-02-06 16:55:04,15.6,2.3,13.3,30.0,13.6,111
2011-02-06 17:00:04,15.6,2.8,12.8,29.7,12.9,111
2011-02-06 17:05:04,15.6,2.5,13.1,28.6,12.0,112
2011-02-06 17:10:04,15.7,2.3,13.4,27.1,12.0,111
2011-02-06 17:15:04,15.7,2.2,13.6,25.1,12.6,111
2011-02-06 17:20:04,15.7,2.5,13.2,18.8,13.0,111
2011-02-06 17:25:04,15.7,2.3,13.4,12.9,13.5,111
2011-02-06 17:30:04,15.7,3.1,12.6,7.6,12.8,112
2011-02-06 17:35:04,15.7,3.0,12.7,4.5,12.7,111
2011-02-06 17:40:04,15.7,2.7,12.9,2.0,14.1,111
2011-02-06 17:45:04,15.6,2.5,13.1,1.3,14.9,112
2011-02-06 17:50:04,15.6,3.0,12.6,0.5,13.6,111
2011-02-06 17:55:04,15.6,2.5,13.1,0.3,13.7,111
2011-02-06 18:00:04,15.6,2.5,13.1,0.2,12.3,111
2011-02-06 18:05:04,15.6,1.8,13.8,0.1,12.3,111
2011-02-06 18:10:04,15.6,1.8,13.9,0.0,12.1,111
2011-02-06 18:15:04,15.7,2.0,13.7,0.0,12.3,111
2011-02-06 18:20:04,15.7,1.8,13.8,0.0,11.5,111
2011-02-06 18:25:04,15.8,1.9,13.9,0.0,11.4,111
2011-02-06 18:30:04,15.8,2.1,13.7,0.0,11.1,111
2011-02-06 18:35:04,15.9,2.2,13.6,0.0,12.4,111
2011-02-06 18:40:04,15.8,2.5,13.3,0.0,14.6,111
2011-02-06 18:45:04,15.7,2.4,13.3,0.0,12.4,111
2011-02-06 18:50:04,15.7,2.0,13.7,0.0,11.7,111
2011-02-06 18:55:04,15.8,1.8,14.0,0.0,11.3,111
2011-02-06 19:00:04,15.9,2.1,13.8,0.0,10.8,112
2011-02-06 19:05:04,16.0,2.4,13.6,0.0,10.6,111
2011-02-06 19:10:04,16.0,2.1,14.0,0.0,10.6,111
2011-02-06 19:15:04,16.1,2.0,14.0,0.0,10.6,111
2011-02-06 19:20:04,16.1,2.3,13.8,0.0,10.5,111
2011-02-06 19:25:04,16.1,2.2,13.9,0.0,10.3,112
2011-02-06 19:30:04,16.1,2.3,13.8,0.0,10.4,110
2011-02-06 19:35:04,16.1,1.8,14.3,0.0,10.3,112
2011-02-06 19:40:04,16.1,2.1,14.0,0.0,10.1,111
2011-02-06 19:45:04,16.2,2.0,14.2,0.0,10.2,111
2011-02-06 19:50:04,16.2,2.0,14.1,0.0,10.2,111
2011-02-06 19:55:04,16.2,2.1,14.1,0.0,10.1,112
2011-02-06 20:00:04,16.2,2.0,14.2,0.0,10.1,111
2011-02-06 20:05:04,16.2,2.1,14.1,0.0,10.1,111
2011-02-06 20:10:04,16.2,2.0,14.2,0.0,10.0,111
2011-02-06 20:15:04,16.3,2.2,14.1,0.0,10.1,111
2011-02-06 20:20:04,16.3,1.5,14.7,0.0,10.1,111
2011-02-06 20:25:04,16.3,2.1,14.2,0.0,10.0,111
2011-02-06 20:30:04,16.3,2.0,14.2,0.0,10.0,111
2011-02-06 20:35:04,16.3,2.2,14.1,0.0,9.9,111
2011-02-06 20:40:04,16.3,2.2,14.0,0.0,10.0,112
2011-02-06 20:45:04,16.3,2.1,14.2,0.0,9.9,111
2011-02-06 20:50:04,16.3,2.2,14.1,0.0,9.9,111
2011-02-06 20:55:04,16.3,2.3,14.1,0.0,10.1,111
2011-02-06 21:00:04,16.3,2.4,13.9,0.0,10.0,110
2011-02-06 21:05:04,16.3,2.2,14.1,0.0,9.9,111
2011-02-06 21:10:04,16.3,2.4,13.9,0.0,9.9,111
2011-02-06 21:15:04,16.4,2.7,13.7,0.0,9.9,111
2011-02-06 21:20:04,16.4,2.5,13.8,0.0,10.1,111
2011-02-06 21:25:04,16.4,2.3,14.1,0.0,10.2,112
2011-02-06 21:30:04,16.3,2.5,13.8,0.0,10.3,110
2011-02-06 21:35:04,16.3,2.7,13.6,0.0,10.3,111
2011-02-06 21:40:04,16.3,2.3,14.0,0.0,10.4,111
2011-02-06 21:45:04,16.3,2.5,13.8,0.0,10.5,112
2011-02-06 21:50:04,16.3,2.4,13.9,0.0,10.5,111
2011-02-06 21:55:04,16.3,2.8,13.6,0.0,10.5,111
2011-02-06 22:00:04,16.3,2.3,14.0,0.0,10.6,111
2011-02-06 22:05:04,16.3,2.6,13.7,0.0,10.6,111
2011-02-06 22:10:04,16.3,2.9,13.4,0.0,10.6,111
2011-02-06 22:15:04,16.3,2.8,13.5,0.0,10.7,112
2011-02-06 22:20:04,16.3,3.2,13.1,0.0,10.7,111
2011-02-06 22:25:04,16.3,3.3,13.0,0.0,10.7,111
2011-02-06 22:30:04,16.3,3.3,13.0,0.0,10.9,112
2011-02-06 22:35:04,16.3,3.3,13.0,0.0,10.9,111
2011-02-06 22:40:04,16.3,3.1,13.1,0.0,11.0,111
2011-02-06 22:45:04,16.3,3.1,13.2,0.0,11.0,112
2011-02-06 22:50:04,16.2,2.8,13.4,0.0,11.2,110
2011-02-06 22:55:04,16.2,3.1,13.1,0.0,11.1,112
2011-02-06 23:00:04,16.2,3.0,13.2,0.0,11.1,111
2011-02-06 23:05:04,16.2,2.8,13.5,0.0,11.1,111
2011-02-06 23:10:04,16.2,3.0,13.2,0.0,11.2,111
2011-02-06 23:15:04,16.2,3.1,13.1,0.0,11.4,111
2011-02-06 23:20:04,16.1,2.9,13.3,0.0,11.4,111
2011-02-06 23:25:04,16.1,2.9,13.2,0.0,11.3,112
2011-02-06 23:30:04,16.1,2.9,13.2,0.0,11.3,111
2011-02-06 23:35:04,16.1,2.8,13.3,0.0,11.5,111
2011-02-06 23:40:04,16.1,2.8,13.3,0.0,11.5,111
2011-02-06 23:45:04,16.1,2.7,13.4,0.0,11.5,112
2011-02-06 23:50:04,16.1,2.5,13.6,0.0,11.4,111
2011-02-06 23:55:04,16.1,2.8,13.2,0.0,11.6,111
